[[{"header":{"parameterUnit":"m.s-1","parameterCategory":1,"la1":30.2991,"la2":30.254,"lo1":-89.0895,"lo2":-89.0444,"dy":0.0017,"dx":0.0017,"nx":28,"ny":28,"refTime":"2024-08-14T21:00:00:Z","depth":0,"parameterNumber":2,"parameterNumberName":"U-component_of_WINDS"},"data":[0,0,0,0,0,0,0,0,0,0,0,0,0,0,0,0,0,0,0,0,0,0,0,0,0,0,0,0,0,0,0,0,0,0,0,0,0,0,0,0,0,0,0,0,0,0,0,0,0,0,0,0,0,0,0,0,0,0,2.2672,2.2674,0,2.2825,2.2827,2.2829,2.2869,2.2868,2.2867,2.2867,2.3024,2.3029,2.3034,0,0,0,0,0,0,0,0,0,0,0,0,0,2.2418,2.2422,2.2672,2.2674,2.2676,2.2825,2.2827,2.2829,2.2869,2.2868,2.2867,2.2866,2.3022,2.3028,2.3034,0,0,0,0,0,0,0,0,0,0,0,0,0,2.2545,2.2424,2.2671,2.2714,2.2719,2.2824,2.2827,2.283,2.287,2.2868,2.2867,2.2866,2.302,2.3028,2.3035,2.311,0,0,2.3058,2.3062,0,0,0,0,0,0,0,0,2.2538,2.2554,2.2706,2.2711,2.2717,2.2827,2.2795,2.2923,2.287,2.2813,2.2867,2.2865,2.296,2.2972,2.3004,2.3117,2.3124,2.3059,2.3064,2.3067,2.3069,0,0,0,0,0,0,0,2.2529,2.2548,2.2732,2.2708,2.2715,2.2726,2.2743,2.282,2.2892,2.2817,2.2821,2.2838,2.2962,2.2996,2.3008,2.3126,2.3059,2.3066,2.307,2.3073,2.3313,2.3314,0,0,0,0,0,0,2.2513,2.254,2.2728,2.2737,2.2622,2.2732,2.2751,2.2793,2.2891,2.2905,2.2839,2.284,2.2984,2.2999,2.3013,2.3109,2.3067,2.3074,2.3078,2.3311,2.3313,2.3315,0,0,0,0,0,0,2.2507,2.2529,2.2721,2.264,2.2665,2.2738,2.2785,2.2797,2.2831,2.2908,2.2921,2.286,2.2984,2.3003,2.3086,2.3115,2.3077,2.3084,2.3309,2.3311,2.3314,2.3299,0,0,0,0,0,0,2.2499,2.2527,2.2554,2.264,2.2669,2.279,2.2787,2.2801,2.2843,2.2845,2.2931,2.2944,2.2984,2.3075,2.3094,2.3125,2.309,2.3306,2.331,2.3313,2.3297,2.33,2.3304,0,0,0,0,0,2.249,2.2543,2.2555,2.2577,2.2705,2.2791,2.2808,2.2853,2.2845,2.2875,2.2925,2.2941,2.3109,2.3083,2.3105,2.3138,2.3305,2.3309,2.3313,2.3295,2.33,2.3303,0,0,0,0,0,0,2.2456,2.2554,2.2569,2.2651,2.2713,2.2798,2.2836,2.2856,2.2921,2.292,2.2973,2.2993,2.3073,2.3114,2.3083,2.3218,2.3207,2.3216,2.3187,2.3192,2.3195,2.3182,2.3096,0,0,0,0,0,2.2459,2.252,2.2603,2.2667,2.2698,2.2762,2.2801,2.2831,2.2897,2.2923,2.2979,2.3043,2.3111,2.3154,2.322,2.3305,2.3325,2.3339,2.3342,2.3345,2.3351,2.3401,2.3409,2.3328,2.3328,2.3328,0,0,2.2464,2.2525,2.256,2.2662,2.2713,2.2777,2.2783,2.2849,2.2897,2.2933,2.3015,2.306,2.3135,2.322,2.326,2.3257,2.3378,2.335,2.3351,2.3356,2.3406,2.3414,2.3421,2.3331,2.3331,2.333,0,0,2.2505,2.2557,2.2618,2.267,2.2748,2.2792,2.2806,2.289,2.2921,2.3005,2.3034,2.3094,2.3208,2.3262,2.3304,2.3372,2.339,2.3393,2.3409,2.3458,2.3464,2.347,2.3495,2.3504,2.3399,2.3399,2.3399,0,2.25,2.2596,2.2646,2.2712,2.2757,2.2795,2.2858,2.2906,2.3002,2.3033,2.3029,2.3177,2.323,2.3329,2.3346,2.3379,2.3399,2.3381,2.3459,2.3466,2.3472,2.3497,2.3506,2.3399,2.3399,2.3399,2.3399,0,2.2588,2.2655,2.2695,2.2788,2.2838,2.2902,2.2963,2.3009,2.3036,2.308,2.3168,2.3234,2.3316,2.3342,2.3368,2.3447,2.3443,2.3448,2.3439,2.3479,2.3503,2.3512,2.3398,2.3398,2.3399,2.3399,0,0,2.2607,2.2731,2.2745,2.2789,2.2881,2.2934,2.3002,2.3083,2.3122,2.3189,2.3247,2.3347,2.3354,2.3402,2.3436,2.3479,2.3531,2.348,2.3483,2.3487,2.3623,2.3617,2.3627,2.3545,2.3547,2.3549,2.3617,0,2.2659,2.278,2.283,2.2928,2.2992,2.3032,2.3092,2.3156,2.3201,2.3263,2.3313,2.3383,2.3386,2.3416,2.3461,2.3515,2.3559,2.3511,2.3601,2.3604,2.3579,2.364,2.3633,2.3694,2.3627,2.3628,2.363,0,2.2735,2.2804,2.2909,2.2998,2.3026,2.3078,2.3159,2.3217,2.3293,2.3323,2.3379,2.3412,2.3487,2.3475,2.3581,2.3547,2.3588,2.3621,2.3625,2.3633,2.3617,2.3649,2.3714,2.3723,2.3645,2.3644,2.3643,0,2.2738,2.2858,2.2937,2.2974,2.3079,2.3115,2.3161,2.3235,2.3282,2.3353,2.3385,2.3464,2.3507,2.3568,2.3623,2.3609,2.3724,2.3716,2.3752,2.375,2.3771,2.3769,2.3843,2.38,2.38,2.38,2.38,0,2.279,2.2853,2.2941,2.2989,2.3062,2.3121,2.3192,2.324,2.3307,2.3367,2.3407,2.3463,2.3532,2.3598,2.3642,2.3723,2.3743,2.377,2.378,2.3765,2.3762,2.3791,2.3788,2.3802,2.3802,2.3801,2.3801,0,2.2805,2.2866,2.2955,2.3049,2.3074,2.3124,2.3205,2.3255,2.3304,2.338,2.3401,2.3478,2.3558,2.362,2.3723,2.3753,2.3839,2.3851,2.3813,2.3819,2.3851,2.3847,2.3945,2.3961,2.3908,2.3908,2.3909,0,2.2833,2.2883,2.2983,2.3027,2.3072,2.3142,2.3191,2.3252,2.3302,2.3394,2.3434,2.3517,2.3586,2.3712,2.3778,2.3859,2.3872,2.3902,2.3884,2.3869,2.3873,2.3868,2.3874,2.3902,2.3903,2.3903,2.3903,0,2.2877,2.2906,2.2975,2.3056,2.3114,2.3181,2.3248,2.3282,2.3356,2.341,2.3493,2.3547,2.3654,2.3737,2.3825,2.3874,2.3902,2.3909,2.3921,2.3905,2.3881,2.3895,2.3818,2.3905,2.3905,2.3905,2.3905,2.3905,2.2899,2.2946,2.3025,2.3102,2.316,2.3224,2.3276,2.3333,2.3403,2.3495,2.3528,2.3614,2.3693,2.3814,2.3865,2.3934,2.3935,2.3952,2.3957,2.396,2.3959,2.3872,2.395,2.395,2.395,2.395,2.395,0,2.2945,2.2999,2.3069,2.3164,2.3225,2.3248,2.3325,2.3375,2.345,2.3521,2.359,2.3687,2.3768,2.3843,2.3929,2.397,2.3985,2.3991,2.3987,2.3998,2.3953,2.3933,2.3977,2.3977,2.3977,2.3977,2.3977,2.3977,2.2975,2.3057,2.3097,2.3209,2.3264,2.3348,2.339,2.345,2.3508,2.3614,2.3683,2.3731,2.3805,2.3898,2.3975,2.3995,2.4024,2.4026,2.405,2.4005,2.4001,2.3998,2.398,2.4033,2.4033,2.409,2.409,2.409]},{"header":{"parameterUnit":"m.s-1","parameterCategory":1,"la1":30.2991,"la2":30.254,"lo1":-89.0895,"lo2":-89.0444,"dy":0.0017,"dx":0.0017,"nx":28,"ny":28,"refTime":"2024-08-14T21:00:00:Z","depth":0,"parameterNumber":3,"parameterNumberName":"V-component_of_WINDS"},"data":[0,0,0,0,0,0,0,0,0,0,0,0,0,0,0,0,0,0,0,0,0,0,0,0,0,0,0,0,0,0,0,0,0,0,0,0,0,0,0,0,0,0,0,0,0,0,0,0,0,0,0,0,0,0,0,0,0,0,3.3706,3.3707,0,3.3769,3.3769,3.377,3.3674,3.3671,3.3667,3.3664,3.3722,3.3726,3.3731,0,0,0,0,0,0,0,0,0,0,0,0,0,3.3499,3.3503,3.3706,3.3707,3.3708,3.3768,3.3769,3.377,3.3675,3.3671,3.3666,3.3663,3.372,3.3726,3.3731,0,0,0,0,0,0,0,0,0,0,0,0,0,3.3578,3.3504,3.3706,3.3668,3.3665,3.3768,3.3769,3.377,3.3675,3.367,3.3665,3.3661,3.3718,3.3725,3.3732,3.3874,0,0,3.3753,3.3756,0,0,0,0,0,0,0,0,3.3573,3.3585,3.3672,3.367,3.3667,3.3709,3.3717,3.3805,3.3677,3.3671,3.3664,3.3658,3.3721,3.3727,3.375,3.3877,3.3879,3.3754,3.3758,3.3761,3.3763,0,0,0,0,0,0,0,3.3568,3.3582,3.373,3.3674,3.3671,3.3645,3.3651,3.3733,3.3723,3.3671,3.3664,3.3674,3.3718,3.3743,3.375,3.388,3.3753,3.376,3.3764,3.3766,3.4128,3.4133,0,0,0,0,0,0,3.3568,3.3578,3.3728,3.3732,3.3607,3.3653,3.3659,3.37,3.3722,3.372,3.3678,3.3669,3.3734,3.3742,3.3752,3.3921,3.3761,3.3767,3.3771,3.4122,3.4129,3.4135,0,0,0,0,0,0,3.3564,3.3582,3.3726,3.3654,3.367,3.3662,3.3708,3.3704,3.3729,3.3727,3.3724,3.3705,3.373,3.3742,3.3845,3.3922,3.377,3.3777,3.4116,3.4124,3.4132,3.426,0,0,0,0,0,0,3.3558,3.3581,3.3637,3.3656,3.3674,3.382,3.3713,3.3709,3.3742,3.3731,3.3752,3.375,3.3727,3.3835,3.3852,3.3928,3.3782,3.4109,3.412,3.4129,3.4249,3.4271,3.4291,0,0,0,0,0,3.3551,3.3668,3.364,3.3658,3.3743,3.3825,3.3835,3.3808,3.3748,3.3803,3.3802,3.375,3.3911,3.3847,3.3865,3.3944,3.4104,3.4117,3.4129,3.4239,3.4267,3.429,0,0,0,0,0,0,3.3655,3.367,3.3639,3.3765,3.3795,3.3809,3.3877,3.3838,3.3883,3.3871,3.3833,3.3838,3.3949,3.3956,3.3885,3.4084,3.3997,3.4013,3.4075,3.4101,3.4122,3.4118,3.3788,0,0,0,0,0,3.3693,3.3761,3.3769,3.388,3.3897,3.3885,3.3919,3.3896,3.3924,3.3935,3.3941,3.3969,3.4025,3.4063,3.4115,3.4249,3.4253,3.4313,3.4334,3.4351,3.4366,3.4439,3.4466,3.4175,3.4175,3.4175,0,0,3.3772,3.3788,3.3832,3.3901,3.3921,3.3991,3.3895,3.3972,3.4022,3.3946,3.4045,3.405,3.4078,3.4198,3.4251,3.4207,3.4447,3.4367,3.438,3.4386,3.4454,3.4482,3.4506,3.4183,3.4182,3.4181,0,0,3.3951,3.397,3.4066,3.4089,3.4122,3.4113,3.4137,3.4157,3.4159,3.4258,3.4202,3.426,3.4359,3.4382,3.4406,3.4596,3.4551,3.4614,3.4724,3.4795,3.4818,3.4838,3.4907,3.4933,3.4629,3.4629,3.4629,0,3.4043,3.4148,3.4119,3.4201,3.4233,3.417,3.4266,3.4289,3.4336,3.4359,3.431,3.4434,3.4448,3.4573,3.462,3.4641,3.4666,3.4612,3.4818,3.4838,3.4856,3.4921,3.4947,3.4637,3.4636,3.4635,3.4634,0,3.4261,3.4334,3.4407,3.4459,3.4499,3.4587,3.4571,3.4614,3.4588,3.4584,3.4686,3.4701,3.4756,3.4784,3.4757,3.4905,3.4878,3.4824,3.4736,3.4892,3.4953,3.4977,3.4648,3.4645,3.4643,3.4641,0,0,3.4506,3.4543,3.4571,3.4594,3.4627,3.4682,3.4767,3.4823,3.4862,3.4897,3.4967,3.5053,3.5004,3.5032,3.5008,3.507,3.5222,3.5008,3.5009,3.5049,3.5387,3.5429,3.5459,3.5191,3.5196,3.52,3.5386,0,3.4686,3.4838,3.4815,3.496,3.5028,3.497,3.5044,3.5071,3.5071,3.5126,3.5123,3.5186,3.5116,3.5133,3.5192,3.5191,3.5289,3.5177,3.5256,3.5259,3.5253,3.549,3.5534,3.5709,3.5409,3.5413,3.5416,0,3.4916,3.4964,3.5117,3.5142,3.5169,3.5237,3.5288,3.5342,3.5372,3.5366,3.54,3.5364,3.5448,3.5359,3.5474,3.5398,3.5429,3.5434,3.544,3.5447,3.5348,3.5505,3.5764,3.5791,3.5453,3.545,3.5447,0,3.5083,3.5184,3.529,3.5311,3.5342,3.5391,3.5406,3.5431,3.5467,3.551,3.5533,3.5584,3.5613,3.5653,3.5632,3.5569,3.5752,3.566,3.5749,3.575,3.5791,3.5789,3.606,3.5809,3.5809,3.5808,3.5808,0,3.5287,3.5383,3.5365,3.543,3.5537,3.5509,3.5614,3.562,3.5644,3.5708,3.5658,3.5719,3.5687,3.5745,3.5729,3.5827,3.584,3.5837,3.5832,3.5843,3.5844,3.5863,3.5851,3.5815,3.5813,3.5812,3.5811,0,3.5491,3.5483,3.5594,3.5615,3.5623,3.57,3.5717,3.5777,3.5773,3.5855,3.5872,3.5865,3.5931,3.5914,3.5984,3.5973,3.6099,3.6077,3.609,3.6085,3.6176,3.6169,3.647,3.6509,3.6232,3.6234,3.6237,0,3.5622,3.5696,3.5726,3.5768,3.5787,3.5853,3.5891,3.5866,3.5907,3.5948,3.6003,3.6065,3.6113,3.6221,3.6221,3.6274,3.6255,3.6357,3.6262,3.6271,3.6258,3.6255,3.6262,3.6376,3.6379,3.6382,3.6384,0,3.5858,3.5851,3.5909,3.5967,3.6014,3.6057,3.6095,3.6131,3.6108,3.6157,3.6225,3.6263,3.6337,3.6399,3.6449,3.6461,3.642,3.6413,3.6437,3.645,3.6455,3.6455,3.6143,3.6407,3.6404,3.6403,3.6401,3.6401,3.603,3.6094,3.6127,3.6193,3.622,3.6258,3.6316,3.6321,3.6379,3.6439,3.642,3.6499,3.6526,3.6589,3.6608,3.6668,3.6629,3.6663,3.6672,3.6681,3.6693,3.6445,3.6676,3.6675,3.6675,3.6674,3.6674,0,3.6265,3.6284,3.6346,3.6403,3.6455,3.6414,3.6454,3.65,3.6571,3.6602,3.6652,3.6731,3.6791,3.6797,3.6853,3.69,3.6882,3.6916,3.6913,3.6916,3.6724,3.6699,3.6929,3.6929,3.6929,3.6929,3.6929,3.6929,3.6393,3.65,3.6497,3.6616,3.6633,3.6713,3.6739,3.6773,3.6798,3.689,3.6942,3.6946,3.6966,3.7024,3.7077,3.7077,3.71,3.7142,3.7135,3.6955,3.693,3.6905,3.6882,3.7147,3.7147,3.7322,3.7324,3.7325]}]]